TimePDT,TemperatureF,Dew PointF,Humidity,Sea Level PressureIn,VisibilityMPH,Wind Direction,Wind SpeedMPH,Gust SpeedMPH,PrecipitationIn,Events,Conditions,WindDirDegrees,DateUTC
12:55 AM,62.1,30.9,31,29.91,10.0,Calm,Calm,-,N/A,,Clear,0,2012-10-28 07:55:00
1:55 AM,64.9,28.9,26,29.92,10.0,NE,4.6,-,N/A,,Clear,50,2012-10-28 08:55:00
2:55 AM,59.0,35.1,41,29.91,10.0,Calm,Calm,-,N/A,,Clear,0,2012-10-28 09:55:00
3:55 AM,59.0,37.9,46,29.91,10.0,West,6.9,-,N/A,,Clear,280,2012-10-28 10:55:00
4:55 AM,57.0,36.0,45,29.92,10.0,Calm,Calm,-,N/A,,Clear,0,2012-10-28 11:55:00
5:55 AM,55.9,37.0,49,29.93,10.0,NNE,4.6,-,N/A,,Clear,20,2012-10-28 12:55:00
6:55 AM,54.0,36.0,51,29.93,10.0,ENE,3.5,-,N/A,,Clear,60,2012-10-28 13:55:00
8:55 AM,64.0,37.0,37,29.96,10.0,Calm,Calm,-,N/A,,Clear,0,2012-10-28 15:55:00
9:55 AM,70.0,44.1,39,29.96,10.0,WSW,3.5,-,N/A,,Clear,250,2012-10-28 16:55:00
10:55 AM,75.9,37.9,25,29.96,10.0,West,6.9,-,N/A,,Clear,260,2012-10-28 17:55:00
11:55 AM,75.9,48.9,38,29.96,10.0,SW,9.2,-,N/A,,Clear,230,2012-10-28 18:55:00
12:55 PM,73.9,55.0,52,29.96,10.0,WSW,12.7,-,N/A,,Clear,240,2012-10-28 19:55:00
1:55 PM,75.9,46.0,35,29.94,10.0,WSW,10.4,-,N/A,,Clear,250,2012-10-28 20:55:00
2:55 PM,75.9,44.1,32,29.94,10.0,WSW,8.1,-,N/A,,Clear,240,2012-10-28 21:55:00
3:55 PM,75.9,44.1,32,29.94,9.0,SW,6.9,-,N/A,,Clear,230,2012-10-28 22:55:00
4:55 PM,75.0,48.9,40,29.94,10.0,South,3.5,-,N/A,,Clear,190,2012-10-28 23:55:00
5:55 PM,72.0,52.0,49,29.95,10.0,Calm,Calm,-,N/A,,Clear,0,2012-10-29 00:55:00
6:55 PM,68.0,51.1,55,29.97,10.0,Calm,Calm,-,N/A,,Clear,0,2012-10-29 01:55:00
7:55 PM,64.0,48.9,58,29.98,10.0,Calm,Calm,-,N/A,,Clear,0,2012-10-29 02:55:00
8:55 PM,59.0,48.9,69,29.99,10.0,Calm,Calm,-,N/A,,Clear,0,2012-10-29 03:55:00
9:55 PM,57.9,46.0,65,30.01,10.0,Calm,Calm,-,N/A,,Clear,0,2012-10-29 04:55:00
10:55 PM,55.0,43.0,64,30.02,10.0,Calm,Calm,-,N/A,,Clear,0,2012-10-29 05:55:00
11:55 PM,54.0,43.0,66,30.04,10.0,Calm,Calm,-,N/A,,Clear,0,2012-10-29 06:55:00